TimeEST,TemperatureF,Dew PointF,Humidity,Sea Level PressureIn,VisibilityMPH,Wind Direction,Wind SpeedMPH,Gust SpeedMPH,PrecipitationIn,Events,Conditions,WindDirDegrees,DateUTC
12:14 AM,38.7,37.8,97,30.16,2.5,Calm,Calm,-,N/A,,Clear,0,2012-11-22 05:14:00
12:35 AM,37.4,36.5,97,30.15,2.0,South,3.5,-,N/A,,Clear,190,2012-11-22 05:35:00
12:55 AM,42.6,41.2,95,30.15,3.0,SSW,5.8,-,N/A,,Clear,200,2012-11-22 05:55:00
1:14 AM,45.1,42.1,89,30.14,4.0,SSW,3.5,-,N/A,,Clear,200,2012-11-22 06:14:00
1:35 AM,43.5,40.5,89,30.14,4.0,South,4.6,-,N/A,,Clear,180,2012-11-22 06:35:00
1:55 AM,39.7,38.3,95,30.13,2.0,Calm,Calm,-,N/A,,Clear,0,2012-11-22 06:55:00
2:14 AM,39.9,38.5,95,30.14,2.0,Calm,Calm,-,N/A,,Clear,0,2012-11-22 07:14:00
2:35 AM,40.8,39.4,95,30.13,3.0,Calm,Calm,-,N/A,,Clear,0,2012-11-22 07:35:00
2:54 AM,41.5,39.6,93,30.14,3.0,Calm,Calm,-,N/A,,Clear,0,2012-11-22 07:54:00
3:14 AM,39.0,37.4,94,30.13,2.0,Calm,Calm,-,N/A,,Clear,0,2012-11-22 08:14:00
3:35 AM,37.4,36.1,95,30.13,1.8,South,4.6,-,N/A,,Mist,180,2012-11-22 08:35:00
3:54 AM,42.1,40.8,95,30.13,3.0,SSW,6.9,-,N/A,,Clear,210,2012-11-22 08:54:00
4:14 AM,43.9,41.4,91,30.13,4.0,SSW,4.6,-,N/A,,Clear,210,2012-11-22 09:14:00
4:35 AM,43.2,40.6,91,30.12,4.0,SSW,5.8,-,N/A,,Clear,200,2012-11-22 09:35:00
4:54 AM,42.8,40.3,91,30.12,3.0,SSW,5.8,-,N/A,,Clear,200,2012-11-22 09:54:00
5:14 AM,43.9,41.4,91,30.11,4.0,SSW,4.6,-,N/A,,Clear,200,2012-11-22 10:14:00
5:35 AM,43.7,41.0,90,30.11,4.0,SSW,5.8,-,N/A,,Clear,210,2012-11-22 10:35:00
5:54 AM,43.7,41.0,90,30.11,4.0,SSW,5.8,-,N/A,,Clear,200,2012-11-22 10:54:00
6:15 AM,43.9,41.2,90,30.10,4.0,SSW,4.6,-,N/A,,Clear,200,2012-11-22 11:15:00
6:35 AM,42.8,40.1,90,30.11,4.0,Calm,Calm,-,N/A,,Clear,0,2012-11-22 11:35:00
6:54 AM,43.9,40.8,89,30.10,4.0,SSW,4.6,-,N/A,,Clear,200,2012-11-22 11:54:00
7:15 AM,43.7,41.0,90,30.11,4.0,SSW,4.6,-,N/A,,Clear,200,2012-11-22 12:15:00
7:34 AM,42.4,39.6,90,30.11,3.0,SSW,5.8,-,N/A,,Clear,210,2012-11-22 12:34:00
7:54 AM,43.0,40.6,91,30.11,2.5,SSW,6.9,-,N/A,,Clear,210,2012-11-22 12:54:00
8:15 AM,44.1,41.0,89,30.11,3.0,SSW,6.9,-,N/A,,Clear,200,2012-11-22 13:15:00
8:34 AM,45.0,41.9,89,30.10,3.0,SSW,6.9,-,N/A,,Clear,210,2012-11-22 13:34:00
8:55 AM,46.4,42.4,86,30.10,3.0,SSW,8.1,-,N/A,,Clear,210,2012-11-22 13:55:00
9:15 AM,48.0,43.0,83,30.09,4.0,South,9.2,-,N/A,,Haze,190,2012-11-22 14:15:00
9:34 AM,49.1,43.3,81,30.09,4.0,SSW,8.1,-,N/A,,Haze,200,2012-11-22 14:34:00
9:55 AM,50.4,43.7,78,30.08,4.0,SSW,9.2,16.1,N/A,,Haze,200,2012-11-22 14:55:00
10:15 AM,51.6,44.6,77,30.08,4.0,SSW,12.7,20.7,N/A,,Haze,200,2012-11-22 15:15:00
10:34 AM,52.7,45.0,75,30.08,5.0,SSW,12.7,19.6,N/A,,Haze,210,2012-11-22 15:34:00
10:55 AM,54.1,45.0,71,30.07,5.0,SSW,15.0,19.6,N/A,,Haze,210,2012-11-22 15:55:00
11:15 AM,55.4,45.1,68,30.06,5.0,SSW,13.8,21.9,N/A,,Haze,210,2012-11-22 16:15:00
11:34 AM,55.9,44.4,65,30.05,7.0,SW,15.0,21.9,N/A,,Clear,220,2012-11-22 16:34:00
11:55 AM,56.5,43.9,63,30.04,7.0,SW,15.0,21.9,N/A,,Clear,220,2012-11-22 16:55:00
12:14 PM,57.6,43.2,59,30.04,7.0,SSW,16.1,24.2,N/A,,Clear,200,2012-11-22 17:14:00
12:34 PM,58.1,42.4,56,30.03,7.0,SSW,17.3,23.0,N/A,,Clear,210,2012-11-22 17:34:00
12:55 PM,59.2,42.8,55,30.01,7.0,SSW,15.0,21.9,N/A,,Clear,210,2012-11-22 17:55:00
1:14 PM,59.4,42.3,53,30.01,10.0,SSW,17.3,25.3,N/A,,Clear,210,2012-11-22 18:14:00
1:34 PM,60.3,41.7,50,29.99,10.0,SSW,12.7,24.2,N/A,,Clear,210,2012-11-22 18:34:00
1:55 PM,60.1,41.7,51,29.98,10.0,South,11.5,21.9,N/A,,Clear,190,2012-11-22 18:55:00
2:14 PM,61.2,40.8,47,29.97,10.0,SSW,12.7,18.4,N/A,,Clear,200,2012-11-22 19:14:00
2:34 PM,60.6,39.7,46,29.97,10.0,SSW,10.4,20.7,N/A,,Clear,210,2012-11-22 19:34:00
2:55 PM,60.4,39.9,47,29.96,10.0,SSW,12.7,23.0,N/A,,Clear,210,2012-11-22 19:55:00
3:14 PM,60.1,39.4,46,29.95,10.0,SSW,13.8,19.6,N/A,,Clear,210,2012-11-22 20:14:00
3:35 PM,59.5,39.7,48,29.95,10.0,SSW,15.0,21.9,N/A,,Clear,200,2012-11-22 20:35:00
3:55 PM,59.2,39.9,49,29.94,10.0,South,11.5,17.3,N/A,,Clear,190,2012-11-22 20:55:00
4:14 PM,59.0,39.4,48,29.94,10.0,South,8.1,16.1,N/A,,Clear,190,2012-11-22 21:14:00
4:35 PM,58.6,40.1,50,29.94,10.0,South,8.1,18.4,N/A,,Mostly Cloudy,180,2012-11-22 21:35:00
4:55 PM,57.6,40.3,53,29.93,10.0,South,8.1,16.1,N/A,,Mostly Cloudy,180,2012-11-22 21:55:00
5:14 PM,57.6,40.1,52,29.93,10.0,South,8.1,19.6,N/A,,Overcast,190,2012-11-22 22:14:00
5:35 PM,57.4,40.1,53,29.92,10.0,South,9.2,16.1,N/A,,Overcast,180,2012-11-22 22:35:00
5:54 PM,57.4,40.1,53,29.91,10.0,South,9.2,18.4,N/A,,Overcast,180,2012-11-22 22:54:00
6:14 PM,57.6,40.1,52,29.90,10.0,South,9.2,17.3,N/A,,Overcast,180,2012-11-22 23:14:00
6:35 PM,57.4,39.7,52,29.91,10.0,South,11.5,17.3,N/A,,Overcast,190,2012-11-22 23:35:00
6:54 PM,57.2,40.3,53,29.91,10.0,South,11.5,20.7,N/A,Rain,Light Rain,190,2012-11-22 23:54:00
7:14 PM,56.7,41.0,56,29.90,10.0,South,9.2,23.0,N/A,Rain,Rain,190,2012-11-23 00:14:00
7:35 PM,54.7,43.5,66,29.89,10.0,South,10.4,19.6,N/A,Rain,Light Rain,180,2012-11-23 00:35:00
7:54 PM,54.0,44.1,69,29.91,10.0,SSW,9.2,-,N/A,Rain,Light Rain,210,2012-11-23 00:54:00
8:14 PM,54.1,43.9,68,29.90,10.0,SSW,9.2,17.3,N/A,,Light Drizzle,200,2012-11-23 01:14:00
8:35 PM,54.5,43.2,66,29.88,10.0,South,5.8,-,N/A,,Overcast,190,2012-11-23 01:35:00
8:54 PM,54.3,42.4,64,29.87,10.0,South,6.9,-,N/A,,Mostly Cloudy,180,2012-11-23 01:54:00
9:15 PM,54.5,42.1,63,29.86,10.0,South,8.1,-,N/A,,Scattered Clouds,190,2012-11-23 02:15:00
9:35 PM,54.5,41.7,62,29.86,10.0,SSW,8.1,-,N/A,,Scattered Clouds,200,2012-11-23 02:35:00
9:54 PM,54.1,41.4,62,29.85,10.0,SSW,10.4,18.4,N/A,,Clear,200,2012-11-23 02:54:00
10:15 PM,53.8,41.0,62,29.85,10.0,SSW,12.7,18.4,N/A,,Scattered Clouds,210,2012-11-23 03:15:00
10:35 PM,53.8,40.5,61,29.84,10.0,SSW,15.0,20.7,N/A,,Overcast,210,2012-11-23 03:35:00
10:54 PM,54.0,40.3,60,29.83,10.0,SSW,11.5,-,N/A,,Overcast,210,2012-11-23 03:54:00
11:15 PM,54.1,40.5,60,29.82,10.0,SSW,12.7,18.4,N/A,,Overcast,210,2012-11-23 04:15:00
11:34 PM,54.1,41.2,62,29.80,10.0,SSW,11.5,-,N/A,,Overcast,210,2012-11-23 04:34:00
11:54 PM,54.1,41.4,62,29.80,10.0,SW,12.7,-,N/A,,Overcast,220,2012-11-23 04:54:00